Flag for Denmark Weather past 2 weeks in Roskilde, Denmark

Now
55 °F

Passing clouds.


Feels Like: 51 °F
Forecast: 47 / 59 °F
Wind: 16 mph from West

Location: Koebenhavn / Roskilde

Current Time: May 30, 2015 at 4:36:55 PM

Latest Report: May 30, 2015 at 4:20 PM


Visibility: N/A

Pressure: 29.71 "Hg

Humidity: 55%

Dew point: 39 °F

Location of RoskildeLocation

Historic Weather in Roskilde — Graph

°F

Roskilde temperature yesterday

Maximum temperature yesterday: 59 °F (at 2:50 PM)
Minimum temperature yesterday: 39 °F (at 3:20 AM)
Average temperature yesterday: 51 °F

Past Weeks' High & Low Weather Summary

 TemperatureHumidityPressure
High61 °F (May 22, 5:20 PM)100% (May 16, 3:20 AM)30.24 "Hg (May 16, 3:20 AM)
Low37 °F (May 21, 4:50 AM)41% (May 15, 7:50 PM)29.50 "Hg (May 19, 4:50 AM)
Average50 °F78%29.92 "Hg
* Reported May 15 3:20 PM — May 30 3:20 PM, Roskilde, Weather by CustomWeather, © 2015

Note: Actual official high and low records may vary slightly from our data, if they occured in-between our weather recording intervals... More about our weather records

Advertising

Roskilde weather history for previous 24 hours

 ConditionsComfort  
Time TempWeatherWind HumidityBarometerVisibility
3:20 PM
Sat, May 30
54 °FPassing clouds.21 mph58%29.71 "HgN/A
2:50 PM55 °FScattered clouds.20 mph63%29.68 "HgN/A
2:20 PM55 °FPassing clouds.21 mph59%29.68 "HgN/A
1:50 PM54 °FPassing clouds.17 mph67%29.65 "HgN/A
1:20 PM52 °FPassing clouds.24 mph67%29.65 "HgN/A
12:50 PM55 °FBroken clouds.20 mph59%29.65 "HgN/A
12:20 PM50 °FSprinkles. Broken clouds.15 mph82%29.65 "HgN/A
11:50 AM54 °FPartly sunny.22 mph63%29.62 "HgN/A
11:20 AM54 °FPartly sunny.22 mph67%29.62 "HgN/A
10:50 AM50 °FSprinkles. Broken clouds.17 mph82%29.59 "HgN/A
10:20 AM48 °FPartly sunny.15 mph82%29.59 "HgN/A
9:50 AM48 °FPartly sunny.17 mph82%29.56 "HgN/A
9:20 AM48 °FCloudy.16 mph82%29.56 "HgN/A
8:50 AM46 °FPartly sunny.18 mph87%29.56 "HgN/A
8:20 AM48 °FBroken clouds.16 mph87%29.53 "HgN/A
7:50 AM46 °FLight rain. Broken clouds.20 mph87%29.53 "Hg4 mi
7:20 AM48 °FBroken clouds.16 mph87%29.53 "HgN/A
6:50 AM48 °FBroken clouds.16 mph87%29.53 "HgN/A
6:20 AM50 °FBroken clouds.15 mph82%29.53 "HgN/A
5:50 AM50 °FPartly sunny.9 mph82%29.53 "HgN/A
5:20 AM50 °FPassing clouds.10 mph82%29.53 "HgN/A
4:50 AM50 °FPartly cloudy.14 mph82%29.53 "HgN/A
4:20 AM50 °FPassing clouds.10 mph88%29.53 "HgN/A
3:50 AM52 °FSprinkles. Passing clouds.12 mph88%29.53 "HgN/A
3:20 AM52 °FSprinkles. Passing clouds.10 mph88%29.53 "HgN/A
2:50 AM50 °FPartly cloudy.9 mph100%29.56 "HgN/A
2:20 AM50 °FPartly cloudy.10 mph94%29.56 "HgN/A
1:50 AM50 °FPassing clouds.10 mph94%29.59 "HgN/A
1:20 AM50 °FSprinkles. Partly cloudy.5 mph94%29.59 "HgN/A
12:50 AM50 °FSprinkles. Passing clouds.9 mph94%29.62 "HgN/A
12:20 AM50 °FLight rain. Overcast.7 mph94%29.62 "HgN/A
11:50 PM
Fri, May 29
50 °FLight rain. Mostly cloudy.9 mph94%29.65 "HgN/A
11:20 PM52 °FLight rain. Passing clouds.14 mph88%29.65 "HgN/A
10:20 PM52 °FBroken clouds.15 mph77%29.65 "HgN/A
9:50 PM52 °FBroken clouds.15 mph82%29.68 "HgN/A
9:20 PM52 °FPartly sunny.14 mph82%29.68 "HgN/A
8:50 PM52 °FBroken clouds.14 mph77%29.71 "HgN/A
8:20 PM52 °FBroken clouds.13 mph77%29.71 "HgN/A
7:50 PM52 °FPassing clouds.13 mph77%29.71 "HgN/A
7:20 PM54 °FScattered clouds.13 mph77%29.74 "HgN/A
6:50 PM57 °FPassing clouds.10 mph59%29.74 "HgN/A
6:20 PM57 °FPartly sunny.10 mph51%29.74 "HgN/A
5:50 PM57 °FSprinkles. Partly sunny.10 mph55%29.74 "HgN/A
5:20 PM57 °FScattered clouds.10 mph55%29.74 "HgN/A
4:50 PM57 °FPassing clouds.14 mph48%29.77 "HgN/A
4:20 PM57 °FPassing clouds.16 mph55%29.77 "HgN/A
Weather by CustomWeather, © 2015

See weather overviewHow to use our weather pages